| time (UTC) | temp C | wind direction | speed KPH | gust KPH | rain 1hr cm | rain 24hr cm | rain mn cm | humidity % | barometer mb |
| 20260504050509 | 11 | 10 | 46.7 | 61.2 | 0.00 | 0.00 | 0.00 | 1 | 1010.2 |
| 20260504045510 | 11 | 29 | 43.5 | 61.2 | 0.00 | 0.00 | 0.00 | 1 | 1009.9 |
| 20260504045014 | 11 | 27 | 43.5 | 61.2 | 0.00 | 0.00 | 0.00 | 1 | 1009.9 |
| 20260504044528 | 11 | 23 | 45.1 | 62.8 | 0.00 | 0.00 | 0.00 | 1 | 1010.0 |
| 20260504044010 | 11 | 30 | 46.7 | 72.4 | 0.00 | 0.00 | 0.00 | 1 | 1009.9 |
| 20260504043510 | 11 | 30 | 49.9 | 72.4 | 0.00 | 0.00 | 0.00 | 1 | 1009.5 |
| 20260504043030 | 12 | 28 | 45.1 | 61.2 | 0.00 | 0.00 | 0.00 | 1 | 1009.7 |
| 20260504042510 | 12 | 23 | 43.5 | 61.2 | 0.00 | 0.00 | 0.00 | 1 | 1009.5 |
| 20260504042011 | 13 | 19 | 41.8 | 56.3 | 0.00 | 0.00 | 0.00 | 1 | 1009.5 |
| 20260504041534 | 13 | 44 | 37.0 | 54.7 | 0.00 | 0.00 | 0.00 | 1 | 1009.5 |
| 20260504041009 | 13 | 34 | 32.2 | 48.3 | 0.00 | 0.00 | 0.00 | 1 | 1009.7 |
| 20260504040509 | 13 | 35 | 32.2 | 46.7 | 0.00 | 0.00 | 0.00 | 1 | 1009.7 |
| 20260504040030 | 13 | 38 | 25.7 | 45.1 | 0.00 | 0.00 | 0.00 | 1 | 1009.4 |
| 20260504035509 | 13 | 28 | 22.5 | 45.1 | 0.00 | 0.00 | 0.00 | 1 | 1009.6 |
| 20260504035010 | 13 | 30 | 20.9 | 32.2 | 0.00 | 0.00 | 0.00 | 1 | 1009.5 |
| 20260504034539 | 13 | 355 | 20.9 | 32.2 | 0.00 | 0.00 | 0.00 | 1 | 1009.2 |
| 20260504034013 | 14 | 27 | 14.5 | 30.6 | 0.00 | 0.00 | 0.00 | 1 | 1009.1 |
| 20260504033509 | 13 | 344 | 17.7 | 41.8 | 0.00 | 0.00 | 0.00 | 1 | 1008.8 |
| 20260504033030 | 13 | 19 | 30.6 | 45.1 | 0.00 | 0.00 | 0.00 | 1 | 1008.9 |
| 20260504032512 | 13 | 27 | 33.8 | 45.1 | 0.00 | 0.00 | 0.00 | 1 | 1008.6 |
| 20260504032010 | 13 | 23 | 30.6 | 45.1 | 0.00 | 0.00 | 0.00 | 1 | 1008.3 |
| 20260504031528 | 13 | 30 | 33.8 | 48.3 | 0.00 | 0.00 | 0.00 | 1 | 1008.3 |
| 20260504031009 | 14 | 32 | 38.6 | 48.3 | 0.00 | 0.00 | 0.00 | 1 | 1008.6 |
| 20260504030510 | 14 | 34 | 32.2 | 43.5 | 0.00 | 0.00 | 0.00 | 1 | 1008.3 |
| 20260504030036 | 14 | 45 | 32.2 | 49.9 | 0.00 | 0.00 | 0.00 | 1 | 1008.3 |
| 20260504025510 | 14 | 29 | 33.8 | 49.9 | 0.00 | 0.00 | 0.00 | 1 | 1008.2 |
| 20260504025017 | 14 | 46 | 29.0 | 43.5 | 0.00 | 0.00 | 0.00 | 1 | 1008.6 |
| 20260504024530 | 14 | 52 | 30.6 | 49.9 | 0.00 | 0.00 | 0.00 | 1 | 1008.5 |
| 20260504024012 | 14 | 59 | 32.2 | 49.9 | 0.00 | 0.00 | 0.00 | 1 | 1008.2 |
| 20260504023512 | 15 | 42 | 30.6 | 41.8 | 0.00 | 0.00 | 0.00 | 1 | 1008.3 |
| 20260504023031 | 15 | 43 | 27.4 | 40.2 | 0.00 | 0.00 | 0.00 | 1 | 1008.1 |
| 20260504022512 | 15 | 46 | 29.0 | 40.2 | 0.00 | 0.00 | 0.00 | 1 | 1008.1 |
| 20260504022012 | 16 | 34 | 24.1 | 35.4 | 0.00 | 0.00 | 0.00 | 1 | 1008.3 |
| 20260504021537 | 16 | 44 | 22.5 | 30.6 | 0.00 | 0.00 | 0.00 | 1 | 1008.3 |
| 20260504021012 | 16 | 26 | 24.1 | 30.6 | 0.00 | 0.00 | 0.00 | 1 | 1008.3 |
| 20260504020512 | 16 | 40 | 17.7 | 24.1 | 0.00 | 0.00 | 0.00 | 1 | 1008.3 |
| 20260504020037 | 17 | 31 | 16.1 | 27.4 | 0.00 | 0.00 | 0.00 | 1 | 1008.4 |
| 20260504015512 | 17 | 24 | 20.9 | 27.4 | 0.00 | 0.00 | 0.00 | 1 | 1008.3 |
| 20260504015013 | 17 | 349 | 12.9 | 17.7 | 0.00 | 0.00 | 0.00 | 1 | 1008.6 |
| 20260504014527 | 17 | 342 | 12.9 | 20.9 | 0.00 | 0.00 | 0.00 | 1 | 1008.7 |
| 20260504014014 | 18 | 336 | 14.5 | 20.9 | 0.00 | 0.00 | 0.00 | 1 | 1008.8 |
| 20260504013515 | 18 | 329 | 16.1 | 20.9 | 0.00 | 0.00 | 0.00 | 1 | 1008.8 |
| 20260504013035 | 18 | 340 | 16.1 | 27.4 | 0.00 | 0.00 | 0.00 | 1 | 1008.8 |
| 20260504012510 | 18 | 333 | 20.9 | 29.0 | 0.00 | 0.00 | 0.00 | 1 | 1008.8 |
| 20260504012013 | 19 | 341 | 24.1 | 29.0 | 0.00 | 0.00 | 0.00 | 1 | 1008.8 |
| 20260504011530 | 19 | 355 | 22.5 | 30.6 | 0.00 | 0.00 | 0.00 | 1 | 1008.8 |
| 20260504011009 | 19 | 355 | 20.9 | 30.6 | 0.00 | 0.00 | 0.00 | 1 | 1008.7 |
| 20260504010512 | 20 | 340 | 24.1 | 30.6 | 0.00 | 0.00 | 0.00 | 1 | 1008.6 |
| 20260504010032 | 19 | 360 | 19.3 | 32.2 | 0.00 | 0.00 | 0.00 | 1 | 1008.7 |
| 20260504005512 | 20 | 342 | 24.1 | 32.2 | 0.00 | 0.00 | 0.00 | 1 | 1008.7 |
| 20260504005012 | 20 | 338 | 22.5 | 32.2 | 0.00 | 0.00 | 0.00 | 1 | 1008.8 |
| 20260504004541 | 20 | 344 | 20.9 | 33.8 | 0.00 | 0.00 | 0.00 | 1 | 1008.7 |
| 20260504004013 | 20 | 355 | 27.4 | 33.8 | 0.00 | 0.00 | 0.00 | 1 | 1008.9 |
| 20260504003510 | 20 | 348 | 17.7 | 35.4 | 0.00 | 0.00 | 0.00 | 1 | 1009.0 |
| 20260504003028 | 20 | 344 | 25.7 | 35.4 | 0.00 | 0.00 | 0.00 | 1 | 1008.9 |
| 20260504002511 | 20 | 340 | 20.9 | 32.2 | 0.00 | 0.00 | 0.00 | 1 | 1009.0 |
| 20260504002013 | 20 | 336 | 22.5 | 37.0 | 0.00 | 0.00 | 0.00 | 1 | 1009.0 |
| 20260504001535 | 20 | 312 | 19.3 | 40.2 | 0.00 | 0.00 | 0.00 | 1 | 1009.2 |
| 20260504001011 | 20 | 5 | 25.7 | 30.6 | 0.00 | 0.00 | 0.00 | 1 | 1009.0 |
| 20260504000513 | 20 | 337 | 19.3 | 33.8 | 0.00 | 0.00 | 0.00 | 1 | 1009.4 |
| 20260504000029 | 20 | 332 | 27.4 | 35.4 | 0.00 | 0.00 | 0.00 | 1 | 1009.4 |
| 20260503235509 | 20 | 347 | 20.9 | 38.6 | 0.00 | 0.00 | 0.00 | 1 | 1009.2 |
| 20260503235012 | 20 | 306 | 29.0 | 46.7 | 0.00 | 0.00 | 0.00 | 1 | 1009.3 |
| 20260503234535 | 20 | 352 | 24.1 | 32.2 | 0.00 | 0.00 | 0.00 | 1 | 1009.4 |
| 20260503234013 | 20 | 338 | 25.7 | 38.6 | 0.00 | 0.00 | 0.00 | 1 | 1009.4 |
| 20260503233510 | 20 | 329 | 24.1 | 38.6 | 0.00 | 0.00 | 0.00 | 1 | 1009.5 |
| 20260503233029 | 21 | 336 | 27.4 | 38.6 | 0.00 | 0.00 | 0.00 | 1 | 1009.3 |
| 20260503232513 | 21 | 317 | 25.7 | 37.0 | 0.00 | 0.00 | 0.00 | 1 | 1009.3 |
| 20260503232011 | 20 | 355 | 19.3 | 30.6 | 0.00 | 0.00 | 0.00 | 1 | 1009.4 |
| 20260503231530 | 21 | 317 | 20.9 | 38.6 | 0.00 | 0.00 | 0.00 | 1 | 1009.5 |
| 20260503231013 | 21 | 301 | 27.4 | 38.6 | 0.00 | 0.00 | 0.00 | 1 | 1009.5 |
| 20260503230511 | 20 | 324 | 22.5 | 43.5 | 0.00 | 0.00 | 0.00 | 1 | 1009.6 |
| 20260503230038 | 20 | 311 | 30.6 | 43.5 | 0.00 | 0.00 | 0.00 | 1 | 1009.5 |
| 20260503225513 | 21 | 352 | 24.1 | 37.0 | 0.00 | 0.00 | 0.00 | 1 | 1009.6 |
| 20260503225012 | 21 | 333 | 24.1 | 40.2 | 0.00 | 0.00 | 0.00 | 1 | 1009.5 |
| 20260503224528 | 21 | 300 | 25.7 | 40.2 | 0.00 | 0.00 | 0.00 | 1 | 1009.8 |
| 20260503224011 | 20 | 332 | 27.4 | 40.2 | 0.00 | 0.00 | 0.00 | 1 | 1009.8 |
| 20260503223512 | 21 | 336 | 27.4 | 41.8 | 0.00 | 0.00 | 0.00 | 1 | 1009.5 |
| 20260503223028 | 21 | 294 | 22.5 | 35.4 | 0.00 | 0.00 | 0.00 | 1 | 1009.7 |
| 20260503222512 | 20 | 299 | 24.1 | 37.0 | 0.00 | 0.00 | 0.00 | 1 | 1009.9 |
| 20260503222012 | 20 | 298 | 29.0 | 37.0 | 0.00 | 0.00 | 0.00 | 1 | 1009.6 |
| 20260503221534 | 20 | 355 | 24.1 | 37.0 | 0.00 | 0.00 | 0.00 | 1 | 1010.0 |
| 20260503221014 | 21 | 312 | 27.4 | 37.0 | 0.00 | 0.00 | 0.00 | 1 | 1009.9 |
| 20260503220512 | 20 | 321 | 25.7 | 37.0 | 0.00 | 0.00 | 0.00 | 1 | 1009.8 |
| 20260503220037 | 20 | 342 | 20.9 | 35.4 | 0.00 | 0.00 | 0.00 | 1 | 1010.1 |
| 20260503215513 | 20 | 360 | 20.9 | 51.5 | 0.00 | 0.00 | 0.00 | 1 | 1010.0 |
| 20260503215011 | 20 | 344 | 29.0 | 51.5 | 0.00 | 0.00 | 0.00 | 1 | 1010.2 |
| 20260503214546 | 21 | 287 | 24.1 | 45.1 | 0.00 | 0.00 | 0.00 | 1 | 1010.3 |
| 20260503214013 | 20 | 360 | 30.6 | 45.1 | 0.00 | 0.00 | 0.00 | 1 | 1010.4 |
| 20260503213512 | 20 | 336 | 24.1 | 38.6 | 0.00 | 0.00 | 0.00 | 1 | 1010.3 |
| 20260503213036 | 20 | 309 | 25.7 | 37.0 | 0.00 | 0.00 | 0.00 | 1 | 1010.6 |
| 20260503212513 | 20 | 306 | 17.7 | 37.0 | 0.00 | 0.00 | 0.00 | 1 | 1010.6 |
| 20260503212018 | 21 | 325 | 19.3 | 37.0 | 0.00 | 0.00 | 0.00 | 1 | 1010.6 |
| 20260503211534 | 20 | 335 | 25.7 | 32.2 | 0.00 | 0.00 | 0.00 | 1 | 1010.4 |
| 20260503211015 | 20 | 275 | 16.1 | 35.4 | 0.00 | 0.00 | 0.00 | 1 | 1010.7 |
| 20260503210513 | 20 | 318 | 27.4 | 35.4 | 0.00 | 0.00 | 0.00 | 1 | 1010.6 |
| 20260503210031 | 20 | 326 | 20.9 | 45.1 | 0.00 | 0.00 | 0.00 | 1 | 1010.8 |
| 20260503205517 | 20 | 322 | 25.7 | 45.1 | 0.00 | 0.00 | 0.00 | 1 | 1010.8 |
| 20260503205013 | 20 | 306 | 20.9 | 33.8 | 0.00 | 0.00 | 0.00 | 1 | 1011.0 |
| 20260503204536 | 20 | 294 | 22.5 | 48.3 | 0.00 | 0.00 | 0.00 | 1 | 1011.1 |
| 20260503204013 | 20 | 302 | 29.0 | 48.3 | 0.00 | 0.00 | 0.00 | 1 | 1010.9 |
| 20260503203513 | 20 | 309 | 29.0 | 40.2 | 0.00 | 0.00 | 0.00 | 1 | 1011.0 |
| 20260503203037 | 20 | 306 | 27.4 | 38.6 | 0.00 | 0.00 | 0.00 | 1 | 1010.9 |
| 20260503202516 | 20 | 330 | 16.1 | 38.6 | 0.00 | 0.00 | 0.00 | 1 | 1011.0 |
| 20260503202013 | 20 | 321 | 27.4 | 38.6 | 0.00 | 0.00 | 0.00 | 1 | 1010.9 |
| 20260503201537 | 20 | 275 | 25.7 | 33.8 | 0.00 | 0.00 | 0.00 | 1 | 1011.3 |
| 20260503201014 | 19 | 290 | 16.1 | 33.8 | 0.00 | 0.00 | 0.00 | 1 | 1011.5 |
| 20260503200513 | 19 | 257 | 24.1 | 30.6 | 0.00 | 0.00 | 0.00 | 1 | 1011.6 |
| 20260503200032 | 19 | 311 | 17.7 | 32.2 | 0.00 | 0.00 | 0.00 | 1 | 1011.6 |
| 20260503195513 | 19 | 279 | 20.9 | 41.8 | 0.00 | 0.00 | 0.00 | 1 | 1011.9 |
| 20260503195013 | 19 | 306 | 25.7 | 41.8 | 0.00 | 0.00 | 0.00 | 1 | 1011.9 |
| 20260503194534 | 19 | 324 | 25.7 | 35.4 | 0.00 | 0.00 | 0.00 | 1 | 1011.7 |
| 20260503194014 | 19 | 313 | 19.3 | 32.2 | 0.00 | 0.00 | 0.00 | 1 | 1011.8 |
| 20260503193512 | 18 | 290 | 19.3 | 37.0 | 0.00 | 0.00 | 0.00 | 1 | 1011.8 |
| 20260503193030 | 18 | 355 | 24.1 | 38.6 | 0.00 | 0.00 | 0.00 | 1 | 1011.8 |
| 20260503192514 | 19 | 340 | 25.7 | 37.0 | 0.00 | 0.00 | 0.00 | 1 | 1011.8 |
| 20260503192013 | 18 | 293 | 24.1 | 32.2 | 0.00 | 0.00 | 0.00 | 1 | 1012.1 |
| 20260503191538 | 18 | 311 | 24.1 | 41.8 | 0.00 | 0.00 | 0.00 | 1 | 1012.1 |
| 20260503191014 | 19 | 329 | 25.7 | 41.8 | 0.00 | 0.00 | 0.00 | 1 | 1011.9 |
| 20260503190513 | 18 | 293 | 17.7 | 27.4 | 0.00 | 0.00 | 0.00 | 1 | 1012.3 |
| 20260503190041 | 18 | 338 | 17.7 | 32.2 | 0.00 | 0.00 | 0.00 | 1 | 1012.4 |
| 20260503185510 | 18 | 338 | 25.7 | 37.0 | 0.00 | 0.00 | 0.00 | 1 | 1012.4 |
| 20260503185016 | 17 | 350 | 20.9 | 37.0 | 0.00 | 0.00 | 0.00 | 1 | 1012.5 |
| 20260503184533 | 18 | 327 | 29.0 | 37.0 | 0.00 | 0.00 | 0.00 | 1 | 1012.4 |
| 20260503184012 | 18 | 316 | 22.5 | 33.8 | 0.00 | 0.00 | 0.00 | 1 | 1012.4 |
| 20260503183512 | 17 | 334 | 22.5 | 33.8 | 0.00 | 0.00 | 0.00 | 1 | 1012.6 |
| 20260503183040 | 17 | 315 | 20.9 | 27.4 | 0.00 | 0.00 | 0.00 | 1 | 1012.8 |
| 20260503182513 | 18 | 340 | 17.7 | 27.4 | 0.00 | 0.00 | 0.00 | 1 | 1012.7 |
| 20260503182011 | 18 | 339 | 20.9 | 40.2 | 0.00 | 0.00 | 0.00 | 1 | 1012.6 |
| 20260503181552 | 18 | 327 | 24.1 | 40.2 | 0.00 | 0.00 | 0.00 | 1 | 1012.7 |
| 20260503181011 | 17 | 343 | 17.7 | 29.0 | 0.00 | 0.00 | 0.00 | 1 | 1012.8 |
| 20260503180513 | 18 | 298 | 19.3 | 29.0 | 0.00 | 0.00 | 0.00 | 1 | 1013.0 |
| 20260503180045 | 17 | 360 | 17.7 | 32.2 | 0.00 | 0.00 | 0.00 | 1 | 1013.1 |
| 20260503175516 | 17 | 325 | 17.7 | 27.4 | 0.00 | 0.00 | 0.00 | 1 | 1013.1 |
| 20260503175014 | 18 | 340 | 16.1 | 27.4 | 0.00 | 0.00 | 0.00 | 1 | 1013.0 |
| 20260503174534 | 17 | 335 | 20.9 | 32.2 | 0.00 | 0.00 | 0.00 | 1 | 1013.1 |
| 20260503174015 | 17 | 321 | 22.5 | 35.4 | 0.00 | 0.00 | 0.00 | 1 | 1013.1 |
| 20260503173511 | 17 | 5 | 19.3 | 35.4 | 0.00 | 0.00 | 0.00 | 1 | 1013.1 |
| 20260503173031 | 17 | 355 | 20.9 | 35.4 | 0.00 | 0.00 | 0.00 | 1 | 1013.1 |
| 20260503172511 | 17 | 327 | 27.4 | 37.0 | 0.00 | 0.00 | 0.00 | 1 | 1013.0 |
| 20260503172011 | 17 | 345 | 25.7 | 37.0 | 0.00 | 0.00 | 0.00 | 1 | 1013.1 |
| 20260503171533 | 17 | 355 | 25.7 | 35.4 | 0.00 | 0.00 | 0.00 | 1 | 1013.3 |
| 20260503171014 | 17 | 325 | 25.7 | 33.8 | 0.00 | 0.00 | 0.00 | 1 | 1013.2 |
| 20260503170512 | 17 | 343 | 25.7 | 33.8 | 0.00 | 0.00 | 0.00 | 1 | 1013.1 |
| 20260503151012 | 15 | 338 | 25.7 | 32.2 | 0.00 | 0.00 | 0.00 | 1 | 1013.3 |
| 20260503150514 | 14 | 340 | 22.5 | 35.4 | 0.00 | 0.00 | 0.00 | 1 | 1013.4 |
| 20260503131014 | 7 | 289 | 6.4 | 11.3 | 0.00 | 0.00 | 0.00 | 1 | 1014.2 |
| 20260503130515 | 7 | 286 | 8.0 | 9.7 | 0.00 | 0.00 | 0.00 | 1 | 1014.1 |
| 20260503110523 | 3 | 338 | 6.4 | 9.7 | 0.00 | 0.00 | 0.00 | 1 | 1014.9 |
| 20260503081553 | 5 | 328 | 4.8 | 8.0 | 0.00 | 0.00 | 0.00 | 1 | 1016.1 |
| 20260503081016 | 5 | 303 | 4.8 | 8.0 | 0.00 | 0.00 | 0.00 | 1 | 1016.1 |
| 20260503080514 | 6 | 269 | 1.6 | 9.7 | 0.00 | 0.00 | 0.00 | 1 | 1016.1 |
| 20260503072518 | 2 | 332 | 6.4 | 9.7 | 0.00 | 0.00 | 0.00 | 1 | 1016.2 |
| 20260503072015 | 2 | 332 | 3.2 | 9.7 | 0.00 | 0.00 | 0.00 | 1 | 1016.1 |
| 20260503071551 | 2 | 332 | 6.4 | 9.7 | 0.00 | 0.00 | 0.00 | 1 | 1016.1 |
| 20260503071015 | 3 | 332 | 4.8 | 6.4 | 0.00 | 0.00 | 0.00 | 1 | 1016.1 |
| 20260503070515 | 3 | 332 | 1.6 | 4.8 | 0.00 | 0.00 | 0.00 | 1 | 1016.1 |